[[{"header":{"parameterUnit":"m.s-1","parameterCategory":1,"la1":30.2991,"la2":30.254,"lo1":-89.0895,"lo2":-89.0444,"dy":0.0017,"dx":0.0017,"nx":28,"ny":28,"refTime":"2025-12-17T09:00:00:Z","depth":0,"parameterNumber":2,"parameterNumberName":"U-component_of_WINDS"},"data":[0,0,0,0,0,0,0,0,0,0,0,0,0,0,0,0,0,0,0,0,0,0,0,0,0,0,0,0,0,0,0,0,0,0,0,0,0,0,0,0,0,0,0,0,0,0,0,0,0,0,0,0,0,0,0,0,0,0,-5.6464,-5.6465,0,-5.6571,-5.6572,-5.6573,-5.6489,-5.6485,-5.6481,-5.6478,-5.6587,-5.6594,-5.66,0,0,0,0,0,0,0,0,0,0,0,0,0,-5.6185,-5.619,-5.6463,-5.6465,-5.6466,-5.6571,-5.6572,-5.6574,-5.6489,-5.6485,-5.648,-5.6476,-5.6585,-5.6593,-5.66,0,0,0,0,0,0,0,0,0,0,0,0,0,-5.63,-5.6192,-5.6463,-5.6437,-5.6435,-5.657,-5.6572,-5.6574,-5.649,-5.6485,-5.6479,-5.6474,-5.6583,-5.6592,-5.6601,-5.6768,0,0,-5.663,-5.6634,0,0,0,0,0,0,0,0,-5.6294,-5.6311,-5.6439,-5.6439,-5.6437,-5.6511,-5.6514,-5.6639,-5.6491,-5.6469,-5.6478,-5.6471,-5.6566,-5.6577,-5.6609,-5.6773,-5.6778,-5.6631,-5.6637,-5.6641,-5.6643,0,0,0,0,0,0,0,-5.6286,-5.6306,-5.6506,-5.6441,-5.644,-5.6419,-5.643,-5.6537,-5.6547,-5.6471,-5.6465,-5.6479,-5.6565,-5.66,-5.6611,-5.678,-5.6631,-5.6639,-5.6645,-5.6649,-5.7086,-5.7091,0,0,0,0,0,0,-5.6281,-5.63,-5.6502,-5.6509,-5.6351,-5.6429,-5.644,-5.6493,-5.6545,-5.6548,-5.6483,-5.6474,-5.6586,-5.66,-5.6614,-5.6812,-5.6641,-5.665,-5.6655,-5.708,-5.7087,-5.7093,0,0,0,0,0,0,-5.6275,-5.63,-5.6498,-5.6403,-5.6426,-5.6439,-5.6499,-5.6498,-5.6533,-5.6555,-5.6556,-5.6517,-5.6583,-5.6601,-5.673,-5.6815,-5.6654,-5.6662,-5.7073,-5.7082,-5.709,-5.721,0,0,0,0,0,0,-5.6267,-5.6298,-5.6362,-5.6405,-5.6432,-5.6613,-5.6504,-5.6504,-5.6549,-5.6539,-5.6587,-5.659,-5.658,-5.6717,-5.674,-5.6825,-5.667,-5.7065,-5.7077,-5.7087,-5.7198,-5.7221,-5.7241,0,0,0,0,0,-5.6258,-5.6391,-5.6365,-5.639,-5.6512,-5.6618,-5.6633,-5.6619,-5.6556,-5.662,-5.6634,-5.6589,-5.6802,-5.6731,-5.6756,-5.6845,-5.706,-5.7073,-5.7086,-5.7188,-5.7217,-5.7241,0,0,0,0,0,0,-5.6357,-5.6396,-5.6368,-5.6519,-5.6566,-5.6603,-5.6683,-5.665,-5.6715,-5.6702,-5.6681,-5.6693,-5.6829,-5.685,-5.677,-5.7009,-5.6921,-5.694,-5.699,-5.7017,-5.7038,-5.703,-5.6678,0,0,0,0,0,-5.6397,-5.648,-5.651,-5.664,-5.6665,-5.6671,-5.6716,-5.6701,-5.6749,-5.6768,-5.6792,-5.6839,-5.6917,-5.6968,-5.7041,-5.7201,-5.721,-5.7275,-5.7297,-5.7314,-5.7331,-5.7416,-5.7445,-5.7137,-5.7137,-5.7137,0,0,-5.6479,-5.6511,-5.6565,-5.6661,-5.6695,-5.6782,-5.6688,-5.6783,-5.6847,-5.6782,-5.6905,-5.6925,-5.6977,-5.7122,-5.7187,-5.7144,-5.7418,-5.7331,-5.7345,-5.7352,-5.7433,-5.7462,-5.7488,-5.7146,-5.7145,-5.7143,0,0,-5.6673,-5.6706,-5.6818,-5.6855,-5.6908,-5.6911,-5.6938,-5.6981,-5.6991,-5.7115,-5.7068,-5.7144,-5.7278,-5.7316,-5.7354,-5.7563,-5.7523,-5.7588,-5.77,-5.7784,-5.7808,-5.7829,-5.7903,-5.7929,-5.7604,-5.7604,-5.7605,0,-5.6769,-5.6897,-5.688,-5.6979,-5.7022,-5.6969,-5.7081,-5.7118,-5.7192,-5.7223,-5.7174,-5.7341,-5.7372,-5.7525,-5.7577,-5.7609,-5.7639,-5.7581,-5.7806,-5.7827,-5.7847,-5.7916,-5.7944,-5.7612,-5.7611,-5.761,-5.761,0,-5.7011,-5.7101,-5.7185,-5.7258,-5.7311,-5.7417,-5.7416,-5.7472,-5.7453,-5.7461,-5.7587,-5.7623,-5.7701,-5.7737,-5.7719,-5.7888,-5.7859,-5.7809,-5.7719,-5.7884,-5.7949,-5.7975,-5.7622,-5.762,-5.7618,-5.7616,0,0,-5.7269,-5.7332,-5.7363,-5.7395,-5.7451,-5.752,-5.7623,-5.77,-5.7748,-5.7802,-5.7887,-5.8002,-5.7956,-5.7998,-5.7984,-5.8058,-5.822,-5.7998,-5.7999,-5.8037,-5.8407,-5.8443,-5.8474,-5.8195,-5.82,-5.8204,-5.8402,0,-5.7464,-5.7643,-5.7631,-5.78,-5.7882,-5.7833,-5.7923,-5.7966,-5.7977,-5.8048,-5.806,-5.8142,-5.8075,-5.81,-5.8171,-5.8185,-5.8294,-5.8171,-5.8273,-5.8276,-5.8259,-5.8509,-5.8547,-5.8733,-5.8427,-5.8432,-5.8435,0,-5.7715,-5.7777,-5.7954,-5.7997,-5.8031,-5.8112,-5.8181,-5.8251,-5.8299,-5.8302,-5.835,-5.8324,-5.8427,-5.8338,-5.848,-5.8397,-5.8438,-5.8451,-5.8458,-5.8465,-5.8364,-5.8521,-5.8791,-5.8818,-5.8475,-5.8472,-5.8469,0,-5.7883,-5.8012,-5.8134,-5.8163,-5.8217,-5.8275,-5.83,-5.8343,-5.839,-5.8451,-5.8481,-5.8554,-5.8593,-5.865,-5.8644,-5.858,-5.8789,-5.8698,-5.8793,-5.8793,-5.8837,-5.8834,-5.9116,-5.8867,-5.8867,-5.8866,-5.8866,0,-5.8101,-5.8211,-5.821,-5.8285,-5.8406,-5.8392,-5.8513,-5.8531,-5.857,-5.8648,-5.8611,-5.8684,-5.8673,-5.8746,-5.8743,-5.886,-5.8879,-5.8883,-5.8881,-5.8886,-5.8885,-5.8911,-5.8897,-5.8874,-5.8872,-5.8871,-5.8869,0,-5.8308,-5.8312,-5.8442,-5.8482,-5.8495,-5.8583,-5.8617,-5.8688,-5.8696,-5.8795,-5.8817,-5.8829,-5.8914,-5.8915,-5.9012,-5.9009,-5.9153,-5.9137,-5.9136,-5.9132,-5.9226,-5.9216,-5.9533,-5.9573,-5.93,-5.9303,-5.9305,0,-5.8446,-5.8529,-5.8579,-5.8628,-5.8657,-5.8737,-5.8785,-5.8774,-5.8826,-5.8888,-5.8951,-5.9033,-5.9097,-5.9235,-5.9252,-5.9326,-5.931,-5.9416,-5.9321,-5.9323,-5.9309,-5.9304,-5.9311,-5.9434,-5.9437,-5.9439,-5.9441,0,-5.8689,-5.8687,-5.8758,-5.883,-5.8888,-5.8945,-5.8996,-5.9039,-5.9034,-5.9094,-5.918,-5.923,-5.933,-5.941,-5.9482,-5.9507,-5.9474,-5.9472,-5.9497,-5.9502,-5.9497,-5.9499,-5.9185,-5.9464,-5.9461,-5.946,-5.9459,-5.9458,-5.8864,-5.8936,-5.8982,-5.9062,-5.91,-5.9149,-5.9218,-5.9235,-5.9307,-5.9386,-5.9376,-5.9472,-5.9519,-5.9611,-5.9643,-5.9718,-5.9681,-5.9718,-5.9727,-5.9736,-5.9745,-5.9488,-5.9731,-5.973,-5.973,-5.9729,-5.9729,0,-5.9104,-5.9131,-5.9205,-5.9279,-5.9342,-5.9306,-5.9362,-5.9417,-5.9502,-5.9548,-5.9612,-5.9712,-5.979,-5.9815,-5.989,-5.9945,-5.9932,-5.9965,-5.996,-5.9966,-5.9775,-5.9744,-5.9975,-5.9975,-5.9975,-5.9975,-5.9975,-5.9975,-5.9235,-5.9354,-5.9358,-5.9495,-5.9522,-5.9616,-5.965,-5.9696,-5.9733,-5.9845,-5.991,-5.9926,-5.9963,-6.0042,-6.0112,-6.0117,-6.0146,-6.0186,-6.0184,-6.0005,-5.998,-5.9956,-5.9927,-6.0193,-6.0193,-6.0369,-6.0371,-6.0372]},{"header":{"parameterUnit":"m.s-1","parameterCategory":1,"la1":30.2991,"la2":30.254,"lo1":-89.0895,"lo2":-89.0444,"dy":0.0017,"dx":0.0017,"nx":28,"ny":28,"refTime":"2025-12-17T09:00:00:Z","depth":0,"parameterNumber":3,"parameterNumberName":"V-component_of_WINDS"},"data":[0,0,0,0,0,0,0,0,0,0,0,0,0,0,0,0,0,0,0,0,0,0,0,0,0,0,0,0,0,0,0,0,0,0,0,0,0,0,0,0,0,0,0,0,0,0,0,0,0,0,0,0,0,0,0,0,0,0,0.3555,0.3556,0,0.3616,0.3616,0.3617,0.363,0.3629,0.3629,0.3629,0.3691,0.3693,0.3695,0,0,0,0,0,0,0,0,0,0,0,0,0,0.3453,0.3454,0.3555,0.3556,0.3557,0.3616,0.3616,0.3617,0.363,0.3629,0.3629,0.3628,0.369,0.3692,0.3695,0,0,0,0,0,0,0,0,0,0,0,0,0,0.3504,0.3455,0.3555,0.357,0.3572,0.3615,0.3617,0.3618,0.363,0.3629,0.3629,0.3628,0.3689,0.3692,0.3695,0.3728,0,0,0.3705,0.3706,0,0,0,0,0,0,0,0,0.3501,0.3507,0.3567,0.3569,0.3571,0.3615,0.3603,0.3655,0.363,0.3608,0.3629,0.3628,0.3666,0.3671,0.3684,0.3731,0.3734,0.3705,0.3707,0.3708,0.3709,0,0,0,0,0,0,0,0.3497,0.3505,0.3579,0.3568,0.3571,0.3575,0.3581,0.3613,0.364,0.361,0.3611,0.3618,0.3667,0.3681,0.3685,0.3735,0.3705,0.3708,0.371,0.3711,0.3815,0.3816,0,0,0,0,0,0,0.3491,0.3502,0.3577,0.3581,0.3534,0.3577,0.3584,0.3601,0.364,0.3645,0.3618,0.3618,0.3676,0.3682,0.3687,0.3731,0.3708,0.3711,0.3713,0.3814,0.3815,0.3816,0,0,0,0,0,0,0.3488,0.3497,0.3575,0.3542,0.3552,0.3579,0.3599,0.3603,0.3617,0.3646,0.3651,0.3627,0.3675,0.3683,0.3719,0.3733,0.3713,0.3715,0.3813,0.3815,0.3816,0.3815,0,0,0,0,0,0,0.3485,0.3496,0.3508,0.3542,0.3554,0.3604,0.3599,0.3605,0.3622,0.3622,0.3656,0.3661,0.3675,0.3714,0.3722,0.3737,0.3718,0.3812,0.3814,0.3815,0.3814,0.3817,0.3819,0,0,0,0,0,0.3482,0.3505,0.3509,0.3518,0.3569,0.3605,0.3612,0.3628,0.3623,0.3636,0.3656,0.366,0.373,0.3717,0.3726,0.3742,0.3811,0.3813,0.3815,0.3813,0.3816,0.3818,0,0,0,0,0,0,0.3471,0.351,0.3514,0.3549,0.3574,0.3607,0.3623,0.363,0.3656,0.3655,0.3675,0.3682,0.3717,0.3733,0.3719,0.3778,0.3771,0.3774,0.3766,0.3769,0.3771,0.3766,0.372,0,0,0,0,0,0.3473,0.3499,0.3531,0.3558,0.3571,0.3595,0.3611,0.3622,0.3648,0.3659,0.3681,0.3706,0.3735,0.3753,0.378,0.3817,0.3826,0.3833,0.3835,0.3836,0.384,0.3863,0.3867,0.3823,0.3823,0.3823,0,0,0.3477,0.3501,0.3516,0.3557,0.3578,0.3605,0.3604,0.3631,0.3652,0.3663,0.3698,0.3716,0.3746,0.3783,0.38,0.3797,0.3854,0.3839,0.384,0.3842,0.3866,0.387,0.3874,0.3824,0.3824,0.3824,0,0,0.3498,0.3518,0.3545,0.3566,0.3597,0.3614,0.3621,0.3654,0.3666,0.3702,0.3711,0.3737,0.3784,0.3806,0.3823,0.3857,0.3863,0.3865,0.3876,0.3899,0.3902,0.3906,0.3919,0.3924,0.3868,0.3868,0.3868,0,0.3499,0.354,0.3557,0.3586,0.3605,0.3617,0.3645,0.3665,0.3703,0.3717,0.3713,0.3775,0.3796,0.384,0.3848,0.3861,0.3871,0.3861,0.39,0.3904,0.3907,0.3921,0.3925,0.3868,0.3868,0.3868,0.3868,0,0.354,0.3568,0.3586,0.3625,0.3645,0.3673,0.3697,0.3716,0.3726,0.3743,0.3782,0.3808,0.3842,0.3853,0.3862,0.3899,0.3897,0.3896,0.3889,0.3911,0.3924,0.3929,0.3869,0.3869,0.3869,0.3869,0,0,0.3554,0.3604,0.3611,0.363,0.3667,0.369,0.3719,0.3753,0.3771,0.3798,0.3824,0.3866,0.3867,0.3887,0.3899,0.3919,0.3946,0.3917,0.3918,0.3923,0.3991,0.3992,0.3997,0.3951,0.3952,0.3952,0.3989,0,0.3581,0.3634,0.3652,0.3697,0.3725,0.3739,0.3765,0.3791,0.3809,0.3836,0.3856,0.3886,0.3884,0.3897,0.3917,0.3939,0.3961,0.3936,0.3977,0.3978,0.3969,0.4004,0.4004,0.4037,0.3994,0.3995,0.3996,0,0.3618,0.3647,0.3694,0.3731,0.3744,0.3767,0.3801,0.3827,0.3858,0.387,0.3894,0.3905,0.3939,0.393,0.3978,0.3961,0.3979,0.3992,0.3994,0.3999,0.3988,0.401,0.4048,0.4053,0.4004,0.4003,0.4002,0,0.3625,0.3676,0.3712,0.3728,0.3771,0.3788,0.3806,0.3837,0.3858,0.3888,0.3902,0.3936,0.3954,0.3981,0.4002,0.3993,0.4048,0.4041,0.406,0.406,0.4071,0.407,0.4113,0.4081,0.4081,0.4081,0.4081,0,0.3653,0.3682,0.3717,0.3738,0.3772,0.3794,0.3827,0.3847,0.3875,0.3902,0.3916,0.3942,0.3968,0.3997,0.4014,0.4052,0.406,0.4071,0.4076,0.4071,0.4069,0.4083,0.4081,0.4082,0.4082,0.4082,0.4081,0,0.3666,0.369,0.3731,0.377,0.378,0.3804,0.3837,0.386,0.388,0.3915,0.3924,0.3955,0.399,0.4015,0.4059,0.4071,0.4113,0.4116,0.4102,0.4105,0.4123,0.4122,0.4177,0.4186,0.4147,0.4147,0.4148,0,0.3682,0.3705,0.3748,0.3767,0.3787,0.3818,0.3839,0.3863,0.3885,0.3925,0.3943,0.398,0.4011,0.4067,0.4094,0.413,0.4135,0.4152,0.414,0.4135,0.4137,0.4136,0.4139,0.4153,0.4154,0.4154,0.4154,0,0.3709,0.3721,0.3752,0.3788,0.3814,0.3843,0.3872,0.3888,0.3917,0.3941,0.3978,0.4002,0.405,0.4087,0.4126,0.4146,0.4156,0.4158,0.4165,0.416,0.4152,0.4158,0.4109,0.4156,0.4156,0.4156,0.4156,0.4156,0.3726,0.3748,0.3782,0.3817,0.3842,0.387,0.3894,0.3918,0.3949,0.399,0.4003,0.4042,0.4076,0.4129,0.4151,0.4183,0.4181,0.419,0.4193,0.4195,0.4196,0.4146,0.419,0.4189,0.4189,0.4189,0.4189,0,0.3754,0.3778,0.381,0.3852,0.388,0.3887,0.3921,0.3944,0.3979,0.401,0.404,0.4085,0.4122,0.4153,0.4191,0.4211,0.4217,0.4221,0.422,0.4225,0.4194,0.4185,0.4216,0.4216,0.4216,0.4216,0.4216,0.4216,0.3773,0.3812,0.3828,0.3881,0.3904,0.3943,0.3962,0.3989,0.4014,0.4064,0.4095,0.4115,0.4147,0.4189,0.4224,0.4232,0.4246,0.425,0.4259,0.423,0.4227,0.4224,0.4216,0.4252,0.4252,0.4287,0.4288,0.4288]}]]